GFSMW_sfc_30mbdewp_000.txt.gz
Dewpoint
31 31 30 31 29 29 29 30 30 30 32 32 32 32 30 33 35 37 45 45 43 40 36 36 41 41 37 37 37 35 35 34 36 34 34 34 34 34 32 37 38 42 47
29 29 29 29 28 28 28 29 29 30 31 31 32 31 30 31 32 33 36 41 43 39 36 35 37 39 38 36 37 37 36 36 37 34 35 31 32 33 34 35 35 37 39
26 29 31 30 30 29 29 29 29 30 31 32 32 32 34 34 33 33 34 36 40 39 36 35 36 35 35 33 34 34 34 33 35 36 35 32 31 35 35 36 36 36 38
27 26 28 31 32 31 32 31 32 32 32 33 33 31 30 29 30 30 31 34 38 38 38 37 36 36 37 36 37 37 36 36 32 34 37 36 37 33 30 34 35 36 37
28 28 28 28 30 32 34 34 34 34 34 36 36 34 32 32 32 32 31 31 34 37 38 37 37 38 37 33 30 29 26 29 27 27 29 30 32 33 31 27 26 31 35
29 31 31 32 34 36 36 37 37 37 37 38 37 37 35 34 33 33 33 34 35 36 37 36 35 33 30 29 27 27 26 25 25 27 28 29 28 27 29 28 27 26 27
29 30 30 36 37 37 38 37 37 37 37 37 36 37 38 38 36 34 34 36 32 30 30 30 30 28 29 30 31 32 32 30 26 25 26 27 29 31 31 31 29 29 29
32 33 36 37 37 37 37 37 37 36 35 36 35 37 38 38 39 37 36 34 32 31 31 32 34 35 35 35 34 34 34 30 27 26 27 28 29 31 29 29 30 29 26
35 35 36 37 37 37 38 38 38 37 37 36 34 33 33 34 32 31 31 31 30 30 33 36 39 40 40 39 35 31 28 30 29 28 29 29 31 33 33 33 31 28 26
32 34 36 37 37 38 39 39 38 38 37 29 32 29 29 28 29 27 27 28 32 36 38 39 38 39 38 34 31 30 29 28 29 29 30 30 31 32 33 32 31 31 29
34 36 37 38 38 38 39 39 39 38 29 28 31 29 26 27 25 25 27 28 30 32 31 32 33 33 32 30 29 27 28 27 27 27 27 27 28 28 29 30 30 30 29
35 38 38 38 38 38 38 38 39 31 29 29 30 29 27 25 24 26 27 27 27 26 26 27 27 27 27 28 27 26 24 23 22 23 24 24 24 25 27 28 28 28 29
38 39 38 38 39 39 38 39 39 31 31 31 28 26 23 22 26 26 26 25 24 24 25 24 24 26 26 25 25 23 22 22 22 23 24 25 26 26 27 27 26 27 28
38 38 38 38 39 38 39 39 32 33 33 30 25 23 23 24 27 26 26 25 25 25 24 25 27 27 26 24 23 23 24 24 23 24 24 24 24 24 24 24 24 25 25
38 38 38 39 39 39 39 36 35 35 34 28 26 29 31 31 29 27 29 32 28 27 27 26 24 23 23 22 26 25 24 23 23 23 23 23 24 25 26 25 24 23 22
38 37 39 40 39 38 38 36 36 36 37 36 37 36 34 34 34 36 34 32 29 26 22 20 20 20 21 28 26 26 24 23 22 22 22 22 22 22 22 23 24 24 23
37 37 39 40 38 37 36 36 37 39 37 38 38 38 38 37 35 34 33 28 22 20 18 17 18 21 23 24 25 25 23 23 24 23 23 22 22 22 22 23 24 24 25
37 38 39 38 37 36 36 37 38 39 38 37 37 36 36 34 30 25 22 18 17 16 16 18 21 22 22 25 23 24 24 24 24 24 24 24 24 24 24 24 24 24 24
39 39 37 36 36 35 36 37 33 35 30 23 23 23 23 20 19 17 16 16 16 16 16 20 23 24 23 24 22 22 22 22 24 25 25 25 24 24 24 26 26 24 26
37 35 34 34 35 34 29 23 20 20 21 22 21 21 21 19 17 17 16 16 15 17 22 23 22 22 21 22 21 21 22 24 23 23 23 23 23 24 25 24 25 24 25
34 34 34 34 35 32 26 17 18 19 20 20 21 20 21 20 19 16 15 16 18 20 20 19 19 19 20 21 21 21 22 24 23 23 23 23 24 25 26 26 26 25 25
33 33 34 34 33 21 16 17 20 21 21 21 21 22 22 21 17 16 16 18 20 18 17 18 18 19 19 21 22 21 21 23 24 24 25 26 26 27 28 28 27 26 27
32 33 34 31 28 18 19 20 21 22 22 22 22 23 23 20 17 17 18 18 18 18 18 19 19 19 21 21 22 21 22 25 26 26 25 25 23 23 26 26 27 27 27
31 33 33 29 29 22 20 21 22 22 22 22 22 24 22 20 19 20 18 18 17 18 20 19 20 21 20 19 20 23 26 25 27 24 23 21 22 21 21 23 23 24 25
32 34 35 34 28 21 21 22 23 23 22 22 23 23 22 19 20 20 19 19 20 21 19 19 22 20 18 20 25 24 25 27 26 25 20 19 19 19 19 20 21 23 25
35 32 32 24 21 22 21 22 24 23 23 22 22 21 22 21 19 19 20 21 22 20 19 20 22 21 21 24 23 24 25 24 24 21 20 17 18 18 19 18 19 21 22

GFSMW_sfc_30mbdewp_003.txt.gz
Dewpoint
30 30 30 31 32 32 31 27 27 28 33 33 33 33 32 32 35 36 37 43 46 44 41 39 41 42 38 37 38 37 35 35 36 35 33 34 35 33 34 35 35 37 39
28 29 29 28 28 29 29 29 29 29 30 31 31 31 31 31 32 33 35 39 44 44 42 38 38 41 40 38 38 37 36 36 37 33 34 28 29 33 34 36 36 36 39
28 29 28 27 28 27 28 28 28 29 30 32 32 32 33 33 32 32 33 34 40 44 43 39 36 38 41 38 37 37 36 32 36 36 31 28 27 31 34 27 35 35 33
26 28 30 30 30 30 31 31 31 32 32 33 33 32 31 31 31 32 32 32 36 37 41 40 37 36 38 37 35 36 35 33 30 33 35 33 31 21 19 29 25 28 31
27 27 28 28 30 32 32 36 37 37 37 37 37 37 36 36 36 35 35 34 33 36 39 40 38 37 38 37 37 35 31 27 26 23 26 28 30 31 26 20 19 26 28
29 31 32 35 37 38 37 37 37 37 37 36 37 37 36 36 37 37 36 36 36 36 37 38 38 36 32 29 27 26 25 26 26 28 30 26 21 21 24 26 24 27 29
28 30 32 36 37 37 37 37 37 37 37 37 36 34 35 36 37 36 37 36 34 34 34 33 31 31 32 34 34 35 35 34 34 32 30 28 26 28 28 29 28 25 25
33 35 36 37 36 37 38 38 38 37 37 36 30 30 32 34 35 36 35 36 32 32 34 37 38 39 39 40 40 40 38 37 35 33 29 27 27 29 29 28 26 26 26
35 35 36 36 36 36 37 38 37 37 38 32 29 31 31 31 32 31 33 32 32 35 39 39 39 39 39 39 39 37 36 33 31 30 29 29 29 31 31 32 32 29 25
33 35 36 36 36 37 38 38 38 38 37 29 31 31 31 30 31 31 30 30 34 38 39 38 34 33 35 37 37 36 32 31 30 30 29 29 29 30 32 32 32 32 29
34 36 37 37 37 38 38 38 38 39 33 31 32 32 32 29 29 29 30 32 35 33 31 30 30 34 36 35 34 31 29 28 27 26 24 24 25 26 27 29 30 29 29
35 37 38 38 38 38 39 38 39 38 32 33 33 32 30 29 26 28 29 29 26 26 26 27 27 28 28 28 28 26 25 24 22 22 23 23 24 25 26 27 28 28 29
37 38 38 38 38 39 39 38 39 33 34 34 32 29 26 25 26 27 27 26 24 24 24 24 23 25 27 26 25 24 23 23 24 24 25 25 26 26 26 27 27 26 26
37 38 38 38 38 39 38 38 36 35 35 35 30 24 22 24 26 26 29 32 31 27 26 25 26 27 25 23 23 23 24 23 23 23 22 22 23 23 23 23 24 24 24
38 38 38 37 39 39 38 38 36 35 37 37 31 31 30 30 31 36 36 33 30 28 29 27 23 22 22 22 25 24 23 22 21 22 23 22 23 22 23 24 24 25 24
39 38 36 37 39 39 37 35 35 36 38 37 37 37 37 37 37 36 35 34 35 34 26 21 20 20 22 29 26 26 25 23 22 21 21 22 22 22 22 21 22 23 22
38 35 36 38 39 36 36 35 35 37 37 37 37 37 37 38 37 36 36 36 27 22 19 19 21 23 24 25 26 24 24 23 23 23 23 23 22 23 22 23 23 24 24
35 34 38 38 35 35 34 35 36 36 36 31 26 26 27 27 27 23 21 19 18 18 18 20 23 23 24 25 24 24 23 22 23 23 23 24 24 24 23 23 23 23 23
33 35 37 34 33 34 31 26 24 25 24 24 25 24 23 21 20 19 18 17 16 17 20 24 23 21 21 22 21 21 21 21 22 23 23 23 23 23 23 23 24 24 23
35 35 34 33 33 34 27 28 26 23 23 27 25 22 21 21 20 18 16 17 18 21 22 20 19 20 20 21 21 21 22 23 22 22 21 22 23 23 23 23 24 23 23
35 34 33 33 34 30 24 20 19 23 22 22 22 22 22 22 19 17 17 19 20 19 17 17 18 19 20 21 21 21 22 22 22 22 22 24 24 24 25 27 27 26 25
33 32 31 33 32 23 21 20 19 21 22 21 22 22 23 21 18 18 19 19 18 17 18 18 18 19 19 21 21 21 21 22 23 23 25 25 23 23 22 23 26 26 28
32 31 32 32 30 23 19 20 21 21 21 22 21 23 23 20 19 19 18 18 17 18 18 20 19 19 20 20 20 20 22 24 25 26 22 20 20 20 21 21 23 24 25
30 31 33 33 34 32 23 20 21 22 22 21 21 23 22 20 20 19 19 19 18 18 20 19 18 19 18 18 19 23 24 24 26 25 24 19 19 19 20 21 21 22 23
30 34 33 31 30 30 22 21 21 22 22 22 22 22 22 21 20 18 20 20 21 21 18 18 20 18 17 19 23 23 23 25 25 22 21 19 17 16 17 18 18 19 21
31 33 30 30 26 22 21 20 22 23 22 22 23 22 22 22 21 18 19 20 20 20 19 19 18 19 20 22 22 23 24 24 22 21 18 16 16 16 16 16 16 17 18

GFSMW_sfc_30mbdewp_006.txt.gz
Dewpoint
29 30 31 32 34 36 35 33 34 35 35 34 33 33 32 33 34 36 38 40 44 46 46 45 43 44 42 40 38 37 36 35 37 35 33 33 35 34 34 33 37 34 39
28 29 30 31 31 32 31 29 28 29 30 32 32 32 32 32 32 33 34 36 38 42 45 45 42 42 43 40 38 37 36 36 36 32 33 25 27 30 34 36 28 37 34
27 28 28 28 28 28 29 29 29 29 30 32 33 32 33 33 33 33 33 33 35 37 42 44 43 41 42 40 39 38 36 34 37 36 28 28 24 30 30 27 28 27 30
28 29 29 29 29 30 31 33 34 35 36 36 36 36 35 35 35 36 35 36 36 36 38 43 44 41 40 40 40 39 38 35 34 35 37 32 29 17 17 25 29 25 25
27 27 28 31 37 35 37 37 37 37 37 37 37 36 34 36 38 38 38 38 38 37 37 38 40 41 39 39 38 37 36 31 30 25 28 28 31 31 22 18 20 23 27
29 31 35 37 37 37 37 38 37 37 37 38 35 33 33 33 34 34 35 37 38 37 36 38 39 38 36 32 31 32 30 29 31 31 30 28 23 21 23 25 23 22 25
31 31 36 36 36 37 37 38 38 37 38 37 32 32 33 33 32 33 34 35 35 33 33 34 35 37 38 38 39 38 37 37 37 36 35 33 34 33 31 28 26 25 24
36 36 36 36 36 36 37 38 38 37 38 36 31 33 34 33 33 33 33 33 34 34 38 38 38 38 39 39 38 38 39 39 38 36 35 35 34 33 32 29 26 25 25
33 34 36 36 36 36 37 38 38 38 39 37 32 34 34 34 33 32 32 33 33 38 38 38 38 38 38 38 38 36 35 35 35 34 35 34 34 33 32 32 31 29 25
34 35 36 37 37 38 38 39 38 38 39 35 33 34 34 34 33 32 31 32 35 38 39 37 35 34 32 35 37 38 38 37 36 34 33 31 30 29 29 30 30 31 29
33 34 36 37 38 38 39 39 38 38 39 33 34 34 34 33 31 30 31 32 36 35 31 31 31 31 34 35 35 35 33 30 28 27 25 24 25 25 26 27 28 28 29
36 36 37 38 39 38 39 39 38 39 35 35 35 34 31 27 28 28 30 31 27 26 25 25 26 27 27 28 28 27 26 24 23 22 23 24 24 25 26 27 27 28 28
37 37 38 38 39 38 38 40 39 37 35 35 36 30 26 24 27 28 30 31 31 28 27 26 27 28 27 27 25 24 23 23 24 24 24 24 24 23 23 23 24 24 25
38 38 38 39 38 38 39 39 38 36 36 37 34 32 30 28 33 36 35 34 33 31 31 31 29 28 25 23 23 23 24 23 22 22 21 21 21 21 21 21 21 22 23
38 38 39 37 37 38 39 38 36 36 37 37 36 35 36 36 36 36 36 36 35 35 36 35 29 23 22 21 24 24 23 22 22 21 22 21 21 21 21 22 22 23 24
38 38 35 36 37 37 36 35 35 36 37 37 37 37 38 37 36 36 36 35 35 35 37 32 21 21 23 27 26 27 25 24 23 22 21 21 22 23 23 23 23 23 22
34 32 31 31 35 36 35 34 35 36 36 33 28 28 29 30 31 33 34 32 26 22 19 19 22 23 24 26 25 24 25 24 23 22 22 22 22 22 23 23 23 23 23
34 32 32 34 35 34 34 33 31 29 27 27 29 29 28 23 22 21 19 19 18 17 18 21 24 22 20 22 21 22 22 22 22 22 22 22 23 23 23 23 24 24 24
34 33 35 34 33 33 28 24 24 24 26 30 30 28 23 22 21 20 18 17 17 18 22 23 20 19 19 21 21 21 21 21 21 22 23 23 22 23 23 24 24 24 23
34 35 34 33 32 34 31 26 28 26 23 25 22 22 22 22 21 18 17 18 19 21 19 18 19 19 19 20 21 21 21 22 23 22 22 21 22 24 26 25 25 23 23
34 34 33 31 33 34 26 25 21 20 23 22 22 22 22 22 19 18 19 19 19 18 17 17 19 19 19 20 21 20 21 23 22 22 22 23 26 22 21 22 22 23 24
33 31 31 31 33 32 23 22 26 21 22 22 21 21 23 21 19 19 18 18 18 17 17 18 18 18 18 21 19 19 21 23 24 23 24 25 22 20 20 21 22 22 23
33 31 30 31 33 32 28 32 30 25 21 22 21 21 22 21 19 19 18 18 19 18 18 20 18 18 19 18 18 19 22 24 24 25 26 24 20 19 19 20 21 22 22
31 30 30 32 32 30 32 28 21 22 22 21 21 22 21 21 19 19 18 19 19 19 19 18 17 18 18 17 18 23 23 23 25 24 23 22 20 18 18 19 19 20 21
30 30 31 33 30 30 28 24 21 22 21 22 22 23 22 22 21 21 18 20 21 20 19 17 18 18 17 18 22 22 22 24 23 23 21 17 16 15 16 16 16 17 18
31 30 33 31 30 28 21 22 21 22 22 22 23 23 22 21 22 19 19 20 19 19 17 17 17 17 18 20 21 21 22 22 21 19 16 15 14 13 15 15 14 15 16

GFSMW_sfc_30mbdewp_009.txt.gz
Dewpoint
30 31 33 35 36 39 42 42 42 44 42 39 37 36 36 36 37 37 39 40 41 44 47 47 47 48 46 45 44 43 42 39 40 38 36 36 38 38 36 35 36 33 38
29 31 33 35 37 38 38 34 33 34 34 34 35 36 36 36 37 38 40 40 40 40 41 44 44 44 45 46 46 44 41 39 40 35 35 31 32 34 36 34 34 37 33
29 29 30 32 33 33 33 33 34 36 38 39 37 38 38 38 36 35 36 37 40 40 40 41 42 43 44 43 45 45 42 39 39 39 34 31 29 29 33 35 30 34 29
29 30 31 33 35 36 40 39 39 39 39 40 38 37 35 34 35 36 36 38 39 40 40 40 41 42 43 43 43 43 43 41 38 39 38 37 33 29 27 29 29 28 26
31 33 37 38 38 39 40 40 39 39 40 39 37 36 36 36 36 36 35 35 37 39 39 39 40 41 41 42 42 43 42 40 39 37 37 33 30 30 23 23 24 25 27
31 35 38 38 38 40 41 41 39 39 40 40 36 37 37 37 37 36 35 34 35 36 37 37 39 39 39 38 38 36 37 36 36 35 33 30 26 24 25 25 26 29 28
36 36 37 37 37 38 39 39 39 38 39 40 36 36 38 38 36 35 34 33 34 34 36 37 39 39 39 39 39 39 39 39 38 38 37 37 36 36 35 34 33 30 27
36 37 37 37 37 38 39 40 39 38 39 40 38 37 38 37 35 35 35 35 34 35 39 39 39 39 39 39 39 39 38 37 37 36 35 34 34 35 35 35 33 29 27
35 36 37 38 39 39 39 40 40 38 39 41 38 37 37 36 35 36 34 33 35 37 39 39 39 39 39 39 38 38 37 35 35 35 35 35 34 36 36 34 32 28 24
35 36 36 38 39 40 40 41 41 39 39 40 36 36 36 36 34 31 32 33 35 39 40 36 34 33 33 32 35 35 36 36 35 34 35 34 33 33 32 30 28 25 21
37 37 37 38 39 40 40 40 41 39 40 36 36 37 35 31 28 30 32 34 37 34 31 29 30 31 32 31 32 33 32 30 29 29 28 26 26 24 24 24 22 21 21
38 38 38 39 40 39 38 40 41 40 36 36 37 35 30 27 29 31 31 32 30 29 29 30 33 34 33 30 29 28 26 24 22 21 23 21 20 23 24 24 24 24 23
38 38 38 39 38 36 38 40 39 37 36 37 37 33 31 30 35 36 36 36 35 34 35 35 37 35 30 26 25 24 24 24 23 24 24 24 23 21 21 21 20 20 20
39 39 39 35 34 36 38 38 37 36 36 38 36 35 34 35 36 36 36 36 35 34 35 35 34 35 32 25 21 22 23 24 23 24 23 21 21 20 19 18 18 18 18
39 38 34 32 33 35 37 36 35 36 38 37 37 37 37 37 37 33 32 33 32 32 34 34 32 24 23 21 25 25 24 24 23 23 21 20 20 21 21 20 19 19 19
36 34 33 32 32 36 35 34 34 36 38 37 31 29 29 29 29 30 30 31 28 24 22 21 21 23 23 27 28 27 24 23 21 20 20 19 20 20 21 23 23 23 21
34 31 27 31 34 35 34 33 34 34 34 29 28 28 30 26 23 22 21 20 20 20 19 20 23 23 22 21 22 22 20 20 20 19 18 18 18 20 21 21 21 22 23
31 27 28 34 36 34 32 32 31 30 29 28 30 30 26 22 22 21 20 19 19 19 19 22 21 19 17 20 20 21 20 21 20 19 19 19 20 21 21 21 21 21 22
32 30 33 36 34 31 34 27 26 26 27 28 27 23 23 22 21 20 19 19 19 19 20 18 18 17 18 19 20 21 20 20 20 20 21 20 20 21 23 23 23 23 20
29 30 35 34 31 31 34 32 29 29 26 25 23 22 22 21 20 20 19 19 19 18 18 17 18 19 19 19 20 19 19 19 19 20 20 21 23 24 26 25 24 22 19
29 32 35 31 30 33 34 30 25 24 26 23 22 21 21 21 21 19 19 18 17 20 21 21 21 21 19 19 19 18 19 21 21 21 20 23 26 26 23 22 21 21 21
30 32 33 30 31 33 32 26 27 30 32 23 22 21 21 21 19 19 18 17 18 20 20 20 19 18 19 18 18 18 20 21 23 21 24 26 24 22 20 20 21 22 22
30 32 31 30 31 33 31 28 31 33 27 23 22 21 22 21 20 18 19 18 19 20 18 17 16 15 16 17 17 19 21 20 22 25 24 22 22 20 18 19 20 21 21
30 31 31 30 31 33 31 31 30 26 22 22 22 22 22 22 22 21 21 19 20 19 18 17 16 15 14 15 17 20 19 20 24 24 23 21 21 18 17 18 19 20 20
31 31 31 31 32 32 31 26 23 23 22 22 22 23 24 23 22 22 20 20 21 19 18 16 15 16 15 17 20 20 20 22 22 22 20 18 17 15 15 16 17 18 18
30 29 28 28 26 25 23 23 23 23 23 22 23 24 23 22 20 19 19 20 20 20 17 17 16 16 16 19 19 19 20 20 20 18 16 15 15 15 15 15 15 16 17

GFSMW_sfc_30mbdewp_012.txt.gz
Dewpoint
32 33 36 38 39 44 46 45 46 43 41 37 36 35 36 36 37 39 41 42 41 42 42 42 42 43 43 44 46 45 44 44 41 40 36 35 37 38 36 35 34 32 34
29 33 36 39 40 40 39 37 36 37 36 35 37 39 40 39 40 39 39 38 38 38 37 39 40 39 40 41 43 45 45 44 42 40 37 33 32 35 37 36 34 34 33
29 31 33 36 38 39 38 37 38 40 41 40 37 37 37 37 35 35 34 35 36 36 36 36 37 39 39 38 39 41 42 42 43 42 40 34 32 31 32 36 35 34 35
30 32 34 36 39 41 41 40 39 39 39 40 37 38 36 35 36 36 35 36 35 34 34 35 37 38 38 38 38 38 40 41 40 41 42 42 39 35 32 34 36 35 34
34 36 37 38 39 40 41 41 39 39 40 39 39 37 37 37 36 36 35 33 30 31 32 34 37 38 39 39 42 42 42 42 41 40 40 41 40 39 36 32 32 32 32
33 36 38 38 38 40 42 41 39 38 40 40 38 39 39 38 36 34 32 30 30 30 31 34 38 39 40 40 40 40 41 40 40 39 38 37 35 35 34 34 33 32 31
36 36 36 36 38 39 40 39 39 37 38 39 37 36 36 37 35 34 32 32 29 30 33 37 38 39 40 40 39 40 39 38 37 37 37 36 35 36 36 36 36 34 33
36 36 36 36 38 40 40 41 39 37 35 36 36 36 38 38 35 34 33 31 31 33 36 39 38 38 37 37 39 41 40 38 37 37 36 35 35 36 35 34 33 32 34
35 35 35 36 38 39 40 41 40 39 38 39 39 39 39 36 34 32 32 31 33 34 38 39 38 36 35 34 35 37 36 36 34 35 36 35 34 35 34 33 32 26 24
35 35 36 37 37 39 41 41 40 39 40 40 38 37 36 34 32 32 32 34 35 38 38 36 33 33 35 37 37 35 33 34 35 32 30 28 27 30 31 30 28 27 24
36 36 37 37 39 40 38 38 39 39 37 37 36 35 34 32 32 32 32 33 34 31 30 30 32 36 38 38 37 34 30 27 25 24 22 20 20 20 19 20 21 20 19
35 36 37 38 39 37 36 35 36 35 35 35 34 34 33 32 32 33 33 34 34 33 32 36 37 38 38 36 32 30 27 23 22 21 20 18 16 19 19 19 19 19 19
34 36 38 38 36 34 33 33 34 35 35 33 32 32 33 33 33 34 34 34 34 34 37 37 36 37 35 33 30 28 25 23 22 20 19 19 20 20 19 19 19 18 17
36 38 38 36 33 31 30 34 35 34 32 33 32 31 34 35 35 32 31 30 30 31 31 30 29 27 24 22 21 21 21 21 20 21 22 22 21 20 19 18 17 16 16
38 36 35 31 27 28 33 34 32 31 33 33 32 31 31 29 28 27 26 25 25 22 21 20 20 21 21 20 25 23 21 20 20 20 20 20 20 21 22 20 18 17 16
35 34 32 25 25 30 34 30 27 28 33 31 30 29 27 27 25 24 22 20 17 18 19 19 19 20 19 23 22 23 19 18 17 17 17 17 18 18 20 21 22 22 21
34 32 26 23 28 33 30 27 27 29 30 30 28 27 27 26 23 20 16 16 17 19 19 19 20 20 19 21 21 21 18 17 18 18 17 16 14 17 18 21 23 23 22
28 25 25 26 31 32 27 28 27 27 28 28 27 27 25 23 19 16 16 17 18 18 18 19 19 18 17 20 20 20 19 19 19 18 17 16 16 18 21 20 20 21 22
29 27 26 28 32 31 28 29 29 27 26 27 26 25 23 21 16 16 17 18 18 18 18 18 18 18 19 20 20 20 19 18 18 18 19 20 21 21 23 24 24 22 22
27 25 25 28 31 30 29 30 28 25 23 25 26 24 22 19 16 18 19 20 18 17 19 21 21 21 20 20 19 18 18 20 21 20 21 22 23 24 25 26 24 21 19
25 24 23 26 29 29 29 29 27 23 21 24 25 24 22 18 18 19 20 20 19 20 24 25 23 23 21 18 18 18 19 21 21 20 21 21 27 26 24 23 21 22 23
23 23 23 24 25 27 28 28 25 22 24 28 27 24 21 19 19 20 20 20 20 20 23 23 22 19 20 16 17 17 19 22 22 21 22 27 23 23 21 20 21 21 21
23 23 24 25 24 25 27 28 26 27 28 29 25 22 21 21 21 21 21 20 19 22 21 18 18 15 15 15 18 20 21 20 21 24 24 23 22 22 21 22 21 21 24
22 24 24 22 22 25 29 30 32 34 31 26 22 22 22 22 22 22 21 19 20 22 18 16 14 14 14 15 17 19 19 20 23 22 25 23 22 23 23 21 21 22 22
24 24 22 22 22 24 26 28 24 23 22 21 21 22 23 23 22 21 19 19 21 20 17 15 14 15 15 16 19 20 19 21 21 21 22 20 19 20 19 18 18 19 20
25 23 23 23 23 24 26 23 24 24 24 22 22 24 25 24 23 19 19 21 20 19 17 16 16 15 15 17 18 18 19 19 20 20 18 17 17 18 18 16 17 19 19